Year,Month,Day,Hour,Minute,Value (Times are PST for windspeed in km/hr)
2008,02,04,00,00,5.30
2008,02,04,00,01,5.30
2008,02,04,00,02,4.80
2008,02,04,00,03,5.30
2008,02,04,00,04,5.70
2008,02,04,00,05,6.00
2008,02,04,00,06,4.90
2008,02,04,00,07,4.40
2008,02,04,00,08,5.60
2008,02,04,00,09,6.90
2008,02,04,00,10,5.00
2008,02,04,00,11,4.80
2008,02,04,00,12,5.60
2008,02,04,00,13,4.90
2008,02,04,00,14,5.00
2008,02,04,00,15,4.60
2008,02,04,00,16,5.10
2008,02,04,00,17,6.20
2008,02,04,00,18,5.00
2008,02,04,00,19,5.90
2008,02,04,00,20,5.00
2008,02,04,00,21,4.70
2008,02,04,00,22,5.50
2008,02,04,00,23,5.50
2008,02,04,00,24,4.60
2008,02,04,00,25,5.00
2008,02,04,00,26,5.40
2008,02,04,00,27,5.70
2008,02,04,00,28,4.30
2008,02,04,00,29,4.20
2008,02,04,00,30,3.30
2008,02,04,00,31,3.10
2008,02,04,00,32,3.70
2008,02,04,00,33,4.50
2008,02,04,00,34,4.50
2008,02,04,00,35,5.20
2008,02,04,00,36,4.50
2008,02,04,00,37,4.80
2008,02,04,00,38,4.90
2008,02,04,00,39,3.20
2008,02,04,00,40,2.60
2008,02,04,00,41,3.70
2008,02,04,00,42,4.00
2008,02,04,00,43,2.30
2008,02,04,00,44,3.00
2008,02,04,00,45,3.70
2008,02,04,00,46,4.70
2008,02,04,00,47,3.70
2008,02,04,00,48,3.40
2008,02,04,00,49,1.10
2008,02,04,00,50,2.90
2008,02,04,00,51,1.50
2008,02,04,00,52,1.50
2008,02,04,00,53,3.90
2008,02,04,00,54,3.60
2008,02,04,00,55,4.30
2008,02,04,00,56,4.20
2008,02,04,00,57,3.10
2008,02,04,00,58,4.40
2008,02,04,00,59,3.80
2008,02,04,01,00,3.70
2008,02,04,01,01,3.20
2008,02,04,01,02,3.50
2008,02,04,01,03,3.50
2008,02,04,01,04,3.30
2008,02,04,01,05,4.70
2008,02,04,01,06,3.70
2008,02,04,01,07,4.40
2008,02,04,01,08,3.70
2008,02,04,01,09,4.70
2008,02,04,01,10,4.30
2008,02,04,01,11,3.60
2008,02,04,01,12,3.90
2008,02,04,01,13,3.70
2008,02,04,01,14,3.10
2008,02,04,01,15,3.50
2008,02,04,01,16,4.00
2008,02,04,01,17,2.90
2008,02,04,01,18,2.80
2008,02,04,01,19,3.00
2008,02,04,01,20,2.60
2008,02,04,01,21,3.20
2008,02,04,01,22,3.40
2008,02,04,01,23,4.00
2008,02,04,01,24,3.20
2008,02,04,01,25,3.30
2008,02,04,01,26,3.60
2008,02,04,01,27,3.80
2008,02,04,01,28,3.70
2008,02,04,01,29,4.10
2008,02,04,01,30,3.30
2008,02,04,01,31,3.10
2008,02,04,01,32,3.10
2008,02,04,01,33,2.90
2008,02,04,01,34,2.40
2008,02,04,01,35,3.20
2008,02,04,01,36,3.40
2008,02,04,01,37,3.20
2008,02,04,01,38,3.10
2008,02,04,01,39,3.00
2008,02,04,01,40,3.30
2008,02,04,01,41,3.30
2008,02,04,01,42,3.50
2008,02,04,01,43,4.10
2008,02,04,01,44,3.40
2008,02,04,01,45,3.90
2008,02,04,01,46,3.10
2008,02,04,01,47,3.80
2008,02,04,01,48,4.30
2008,02,04,01,49,2.90
2008,02,04,01,50,3.70
2008,02,04,01,51,3.30
2008,02,04,01,52,3.40
2008,02,04,01,53,3.00
2008,02,04,01,54,4.20
2008,02,04,01,55,4.60
2008,02,04,01,56,2.90
2008,02,04,01,57,3.80
2008,02,04,01,58,3.40
2008,02,04,01,59,4.50
2008,02,04,02,00,3.10
2008,02,04,02,01,3.70
2008,02,04,02,02,4.30
2008,02,04,02,03,3.30
2008,02,04,02,04,3.20
2008,02,04,02,05,4.50
2008,02,04,02,06,4.10
2008,02,04,02,07,3.10
2008,02,04,02,08,4.40
2008,02,04,02,09,5.80
2008,02,04,02,10,3.70
2008,02,04,02,11,4.60
2008,02,04,02,12,5.70
2008,02,04,02,13,5.20
2008,02,04,02,14,3.70
2008,02,04,02,15,3.40
2008,02,04,02,16,4.90
2008,02,04,02,17,4.60
2008,02,04,02,18,4.30
2008,02,04,02,19,3.50
2008,02,04,02,20,3.50
2008,02,04,02,21,3.90
2008,02,04,02,22,3.80
2008,02,04,02,23,3.10
2008,02,04,02,24,2.80
2008,02,04,02,25,3.30
2008,02,04,02,26,3.80
2008,02,04,02,27,4.30
2008,02,04,02,28,3.60
2008,02,04,02,29,3.90
2008,02,04,02,30,3.40
2008,02,04,02,31,3.70
2008,02,04,02,32,3.20
2008,02,04,02,33,3.10
2008,02,04,02,34,2.50
2008,02,04,02,35,4.30
2008,02,04,02,36,4.00
2008,02,04,02,37,3.30
2008,02,04,02,38,3.70
2008,02,04,02,39,4.40
2008,02,04,02,40,3.00
2008,02,04,02,41,2.90
2008,02,04,02,42,3.40
2008,02,04,02,43,2.90
2008,02,04,02,44,3.90
2008,02,04,02,45,4.10
2008,02,04,02,46,4.50
2008,02,04,02,47,4.50
2008,02,04,02,48,5.00
2008,02,04,02,49,3.50
2008,02,04,02,50,4.10
2008,02,04,02,51,3.70
2008,02,04,02,52,5.20
2008,02,04,02,53,3.40
2008,02,04,02,54,3.00
2008,02,04,02,55,3.00
2008,02,04,02,56,3.00
2008,02,04,02,57,3.70
2008,02,04,02,58,3.90
2008,02,04,02,59,3.50
2008,02,04,03,00,3.70
2008,02,04,03,01,3.20
2008,02,04,03,02,3.40
2008,02,04,03,03,2.60
2008,02,04,03,04,3.90
2008,02,04,03,05,3.00
2008,02,04,03,06,3.50
2008,02,04,03,07,4.20
2008,02,04,03,08,3.00
2008,02,04,03,09,3.80
2008,02,04,03,10,3.20
2008,02,04,03,11,3.40
2008,02,04,03,12,3.10
2008,02,04,03,13,4.90
2008,02,04,03,14,3.90
2008,02,04,03,15,5.20
2008,02,04,03,16,3.70
2008,02,04,03,17,4.20
2008,02,04,03,18,4.70
2008,02,04,03,19,3.20
2008,02,04,03,20,5.10
2008,02,04,03,21,3.70
2008,02,04,03,22,3.90
2008,02,04,03,23,5.10
2008,02,04,03,24,3.00
2008,02,04,03,25,3.40
2008,02,04,03,26,3.50
2008,02,04,03,27,3.70
2008,02,04,03,28,4.20
2008,02,04,03,29,3.80
2008,02,04,03,30,3.80
2008,02,04,03,31,3.70
2008,02,04,03,32,3.50
2008,02,04,03,33,3.90
2008,02,04,03,34,3.70
2008,02,04,03,35,4.00
2008,02,04,03,36,3.70
2008,02,04,03,37,3.80
2008,02,04,03,38,2.90
2008,02,04,03,39,3.50
2008,02,04,03,40,4.00
2008,02,04,03,41,3.80
2008,02,04,03,42,3.90
2008,02,04,03,43,3.40
2008,02,04,03,44,3.10
2008,02,04,03,45,3.10
2008,02,04,03,46,3.90
2008,02,04,03,47,3.70
2008,02,04,03,48,2.60
2008,02,04,03,49,4.00
2008,02,04,03,50,3.30
2008,02,04,03,51,3.20
2008,02,04,03,52,4.20
2008,02,04,03,53,3.90
2008,02,04,03,54,4.10
2008,02,04,03,55,4.80
2008,02,04,03,56,4.00
2008,02,04,03,57,3.80
2008,02,04,03,58,3.60
2008,02,04,03,59,3.20
2008,02,04,04,00,3.40
2008,02,04,04,01,4.10
2008,02,04,04,02,4.20
2008,02,04,04,03,3.80
2008,02,04,04,04,2.90
2008,02,04,04,05,3.40
2008,02,04,04,06,3.40
2008,02,04,04,07,3.70
2008,02,04,04,08,3.40
2008,02,04,04,09,4.30
2008,02,04,04,10,3.90
2008,02,04,04,11,3.10
2008,02,04,04,12,2.60
2008,02,04,04,13,3.10
2008,02,04,04,14,4.10
2008,02,04,04,15,3.70
2008,02,04,04,16,5.60
2008,02,04,04,17,3.40
2008,02,04,04,18,2.70
2008,02,04,04,19,2.60
2008,02,04,04,20,2.50
2008,02,04,04,21,3.20
2008,02,04,04,22,3.50
2008,02,04,04,23,3.00
2008,02,04,04,24,3.80
2008,02,04,04,25,3.00
2008,02,04,04,26,3.50
2008,02,04,04,27,5.50
2008,02,04,04,28,4.60
2008,02,04,04,29,3.10
2008,02,04,04,30,2.50
2008,02,04,04,31,3.90
2008,02,04,04,32,3.50
2008,02,04,04,33,2.00
2008,02,04,04,34,2.90
2008,02,04,04,35,3.40
2008,02,04,04,36,3.20
2008,02,04,04,37,2.50
2008,02,04,04,38,2.40
2008,02,04,04,39,3.00
2008,02,04,04,40,2.00
2008,02,04,04,41,3.80
2008,02,04,04,42,4.20
2008,02,04,04,43,3.80
2008,02,04,04,44,3.10
2008,02,04,04,45,2.90
2008,02,04,04,46,3.00
2008,02,04,04,47,3.10
2008,02,04,04,48,3.30
2008,02,04,04,49,2.70
2008,02,04,04,50,2.10
2008,02,04,04,51,2.10
2008,02,04,04,52,1.50
2008,02,04,04,53,2.60
2008,02,04,04,54,2.00
2008,02,04,04,55,2.90
2008,02,04,04,56,3.10
2008,02,04,04,57,3.00
2008,02,04,04,58,2.80
2008,02,04,04,59,2.80
2008,02,04,05,00,3.00
2008,02,04,05,01,2.00
2008,02,04,05,02,2.10
2008,02,04,05,03,2.00
2008,02,04,05,04,2.10
2008,02,04,05,05,2.20
2008,02,04,05,06,2.90
2008,02,04,05,07,2.50
2008,02,04,05,08,2.10
2008,02,04,05,09,2.00
2008,02,04,05,10,2.30
2008,02,04,05,11,2.60
2008,02,04,05,12,2.10
2008,02,04,05,13,1.30
2008,02,04,05,14,2.50
2008,02,04,05,15,2.60
2008,02,04,05,16,2.60
2008,02,04,05,17,3.10
2008,02,04,05,18,2.20
2008,02,04,05,19,3.00
2008,02,04,05,20,3.20
2008,02,04,05,21,3.40
2008,02,04,05,22,3.00
2008,02,04,05,23,2.70
2008,02,04,05,24,3.10
2008,02,04,05,25,3.20
2008,02,04,05,26,3.30
2008,02,04,05,27,3.30
2008,02,04,05,28,2.60
2008,02,04,05,29,2.30
2008,02,04,05,30,2.20
2008,02,04,05,31,2.30
2008,02,04,05,32,1.40
2008,02,04,05,33,0.30
2008,02,04,05,34,0.00
2008,02,04,05,35,0.10
2008,02,04,05,36,0.00
2008,02,04,05,37,0.00
2008,02,04,05,38,0.00
2008,02,04,05,39,0.00
2008,02,04,05,40,0.30
2008,02,04,05,41,2.00
2008,02,04,05,42,2.40
2008,02,04,05,43,0.20
2008,02,04,05,44,0.40
2008,02,04,05,45,0.00
2008,02,04,05,46,0.00
2008,02,04,05,47,0.00
2008,02,04,05,48,0.00
2008,02,04,05,49,0.60
2008,02,04,05,50,0.10
2008,02,04,05,51,1.20
2008,02,04,05,52,1.00
2008,02,04,05,53,0.80
2008,02,04,05,54,2.50
2008,02,04,05,55,3.70
2008,02,04,05,56,2.60
2008,02,04,05,57,2.30
2008,02,04,05,58,2.40
2008,02,04,05,59,2.20
2008,02,04,06,00,2.50
2008,02,04,06,01,4.10
2008,02,04,06,02,2.60
2008,02,04,06,03,3.20
2008,02,04,06,04,3.60
2008,02,04,06,05,3.50
2008,02,04,06,06,4.20
2008,02,04,06,07,3.80
2008,02,04,06,08,3.50
2008,02,04,06,09,4.30
2008,02,04,06,10,3.10
2008,02,04,06,11,4.60
2008,02,04,06,12,5.70
2008,02,04,06,13,5.20
2008,02,04,06,14,4.70
2008,02,04,06,15,4.40
2008,02,04,06,16,4.60
2008,02,04,06,17,5.30
2008,02,04,06,18,4.00
2008,02,04,06,19,4.20
2008,02,04,06,20,5.10
2008,02,04,06,21,4.40
2008,02,04,06,22,5.60
2008,02,04,06,23,6.60
2008,02,04,06,24,5.60
2008,02,04,06,25,4.60
2008,02,04,06,26,4.50
2008,02,04,06,27,4.30
2008,02,04,06,28,4.10
2008,02,04,06,29,3.90
2008,02,04,06,30,3.60
2008,02,04,06,31,3.90
2008,02,04,06,32,4.60
2008,02,04,06,33,4.30
2008,02,04,06,34,4.40
2008,02,04,06,35,4.10
2008,02,04,06,36,4.40
2008,02,04,06,37,5.60
2008,02,04,06,38,5.60
2008,02,04,06,39,5.80
2008,02,04,06,40,5.70
2008,02,04,06,41,4.90
2008,02,04,06,42,4.70
2008,02,04,06,43,5.20
2008,02,04,06,44,5.00
2008,02,04,06,45,4.30
2008,02,04,06,46,4.60
2008,02,04,06,47,5.10
2008,02,04,06,48,4.60
2008,02,04,06,49,5.50
2008,02,04,06,50,5.50
2008,02,04,06,51,5.70
2008,02,04,06,52,5.30
2008,02,04,06,53,5.60
2008,02,04,06,54,5.40
2008,02,04,06,55,5.30
2008,02,04,06,56,5.40
2008,02,04,06,57,5.50
2008,02,04,06,58,4.50
2008,02,04,06,59,3.60
2008,02,04,07,00,4.70
2008,02,04,07,01,4.50
2008,02,04,07,02,4.40
2008,02,04,07,03,4.40
2008,02,04,07,04,4.20
2008,02,04,07,05,4.00
2008,02,04,07,06,4.10
2008,02,04,07,07,3.30
2008,02,04,07,08,3.30
2008,02,04,07,09,3.90
2008,02,04,07,10,3.30
2008,02,04,07,11,3.00
2008,02,04,07,12,3.60
2008,02,04,07,13,3.60
2008,02,04,07,14,3.50
2008,02,04,07,15,4.10
2008,02,04,07,16,4.40
2008,02,04,07,17,4.10
2008,02,04,07,18,3.10
2008,02,04,07,19,3.40
2008,02,04,07,20,4.20
2008,02,04,07,21,3.70
2008,02,04,07,22,3.00
2008,02,04,07,23,3.30
2008,02,04,07,24,3.60
2008,02,04,07,25,2.90
2008,02,04,07,26,2.80
2008,02,04,07,27,3.50
2008,02,04,07,28,4.40
2008,02,04,07,29,4.60
2008,02,04,07,30,3.50
2008,02,04,07,31,3.20
2008,02,04,07,32,1.60
2008,02,04,07,33,0.60
2008,02,04,07,34,2.30
2008,02,04,07,35,1.80
2008,02,04,07,36,2.40
2008,02,04,07,37,3.30
2008,02,04,07,38,2.90
2008,02,04,07,39,2.10
2008,02,04,07,40,2.10
2008,02,04,07,41,3.10
2008,02,04,07,42,3.10
2008,02,04,07,43,1.80
2008,02,04,07,44,2.30
2008,02,04,07,45,2.10
2008,02,04,07,46,2.50
2008,02,04,07,47,1.90
2008,02,04,07,48,2.80
2008,02,04,07,49,2.40
2008,02,04,07,50,2.60
2008,02,04,07,51,3.20
2008,02,04,07,52,3.40
2008,02,04,07,53,3.50
2008,02,04,07,54,3.60
2008,02,04,07,55,3.00
2008,02,04,07,56,2.30
2008,02,04,07,57,2.50
2008,02,04,07,58,2.10
2008,02,04,07,59,1.80
2008,02,04,08,00,1.00
2008,02,04,08,01,2.40
2008,02,04,08,02,2.40
2008,02,04,08,03,3.40
2008,02,04,08,04,2.70
2008,02,04,08,05,3.80
2008,02,04,08,06,3.20
2008,02,04,08,07,2.30
2008,02,04,08,08,3.00
2008,02,04,08,09,2.40
2008,02,04,08,10,1.80
2008,02,04,08,11,3.10
2008,02,04,08,12,3.10
2008,02,04,08,13,3.50
2008,02,04,08,14,2.20
2008,02,04,08,15,2.10
2008,02,04,08,16,1.30
2008,02,04,08,17,2.80
2008,02,04,08,18,2.40
2008,02,04,08,19,2.80
2008,02,04,08,20,2.50
2008,02,04,08,21,1.80
2008,02,04,08,22,1.60
2008,02,04,08,23,1.90
2008,02,04,08,24,1.80
2008,02,04,08,25,2.10
2008,02,04,08,26,1.80
2008,02,04,08,27,2.30
2008,02,04,08,28,2.10
2008,02,04,08,29,1.90
2008,02,04,08,30,2.20
2008,02,04,08,31,2.70
2008,02,04,08,32,2.60
2008,02,04,08,33,2.10
2008,02,04,08,34,1.90
2008,02,04,08,35,2.10
2008,02,04,08,36,2.50
2008,02,04,08,37,2.80
2008,02,04,08,38,3.40
2008,02,04,08,39,3.40
2008,02,04,08,40,3.30
2008,02,04,08,41,2.70
2008,02,04,08,42,2.60
2008,02,04,08,43,2.50
2008,02,04,08,44,2.00
2008,02,04,08,45,3.50
2008,02,04,08,46,2.40
2008,02,04,08,47,2.90
2008,02,04,08,48,2.80
2008,02,04,08,49,2.70
2008,02,04,08,50,2.50
2008,02,04,08,51,2.60
2008,02,04,08,52,2.60
2008,02,04,08,53,1.70
2008,02,04,08,54,1.50
2008,02,04,08,55,0.40
2008,02,04,08,56,1.10
2008,02,04,08,57,1.30
2008,02,04,08,58,1.40
2008,02,04,08,59,2.20
2008,02,04,09,00,0.90
2008,02,04,09,01,2.30
2008,02,04,09,02,2.00
2008,02,04,09,03,1.00
2008,02,04,09,04,0.00
2008,02,04,09,05,0.00
2008,02,04,09,06,0.00
2008,02,04,09,07,0.00
2008,02,04,09,08,0.00
2008,02,04,09,09,0.00
2008,02,04,09,10,0.00
2008,02,04,09,11,0.00
2008,02,04,09,12,0.00
2008,02,04,09,13,0.00
2008,02,04,09,14,0.00
2008,02,04,09,15,0.00
2008,02,04,09,16,0.00
2008,02,04,09,17,0.00
2008,02,04,09,18,0.00
2008,02,04,09,19,0.00
2008,02,04,09,20,0.00
2008,02,04,09,21,0.00
2008,02,04,09,22,0.00
2008,02,04,09,23,0.00
2008,02,04,09,24,0.00
2008,02,04,09,25,0.00
2008,02,04,09,26,0.00
2008,02,04,09,27,0.00
2008,02,04,09,28,0.00
2008,02,04,09,29,0.00
2008,02,04,09,30,0.00
2008,02,04,09,31,0.00
2008,02,04,09,32,0.00
2008,02,04,09,33,0.00
2008,02,04,09,34,0.00
2008,02,04,09,35,0.00
2008,02,04,09,36,0.00
2008,02,04,09,37,0.00
2008,02,04,09,38,0.00
2008,02,04,09,39,0.00
2008,02,04,09,40,0.00
2008,02,04,09,41,0.00
2008,02,04,09,42,0.00
2008,02,04,09,43,0.00
2008,02,04,09,44,0.00
2008,02,04,09,45,0.00
2008,02,04,09,46,0.00
2008,02,04,09,47,0.00
2008,02,04,09,48,0.00
2008,02,04,09,49,0.00
2008,02,04,09,50,0.00
2008,02,04,09,51,0.10
2008,02,04,09,52,0.00
2008,02,04,09,53,0.00
2008,02,04,09,54,0.00
2008,02,04,09,55,0.60
2008,02,04,09,56,0.80
2008,02,04,09,57,0.40
2008,02,04,09,58,0.30
2008,02,04,09,59,0.10
2008,02,04,10,00,0.30
2008,02,04,10,01,0.10
2008,02,04,10,02,0.10
2008,02,04,10,03,0.00
2008,02,04,10,04,1.60
2008,02,04,10,05,3.10
2008,02,04,10,06,0.40
2008,02,04,10,07,0.10
2008,02,04,10,08,0.00
2008,02,04,10,09,0.00
2008,02,04,10,10,0.10
2008,02,04,10,11,0.00
2008,02,04,10,12,0.50
2008,02,04,10,13,0.40
2008,02,04,10,14,0.00
2008,02,04,10,15,0.00
2008,02,04,10,16,0.40
2008,02,04,10,17,1.30
2008,02,04,10,18,2.70
2008,02,04,10,19,3.90
2008,02,04,10,20,2.90
2008,02,04,10,21,2.90
2008,02,04,10,22,0.20
2008,02,04,10,23,0.00
2008,02,04,10,24,1.10
2008,02,04,10,25,1.70
2008,02,04,10,26,1.80
2008,02,04,10,27,3.00
2008,02,04,10,28,0.70
2008,02,04,10,29,0.10
2008,02,04,10,30,1.00
2008,02,04,10,31,1.60
2008,02,04,10,32,1.40
2008,02,04,10,33,0.80
2008,02,04,10,34,2.70
2008,02,04,10,35,0.30
2008,02,04,10,36,1.00
2008,02,04,10,37,1.90
2008,02,04,10,38,0.00
2008,02,04,10,39,1.60
2008,02,04,10,40,0.40
2008,02,04,10,41,0.00
2008,02,04,10,42,1.20
2008,02,04,10,43,1.80
2008,02,04,10,44,2.10
2008,02,04,10,45,1.50
2008,02,04,10,46,2.20
2008,02,04,10,47,3.10
2008,02,04,10,48,3.40
2008,02,04,10,49,1.70
2008,02,04,10,50,0.20
2008,02,04,10,51,2.50
2008,02,04,10,52,3.60
2008,02,04,10,53,2.20
2008,02,04,10,54,1.20
2008,02,04,10,55,0.00
2008,02,04,10,56,1.10
2008,02,04,10,57,4.60
2008,02,04,10,58,4.40
2008,02,04,10,59,3.20
2008,02,04,11,00,3.20
2008,02,04,11,01,3.00
2008,02,04,11,02,1.60
2008,02,04,11,03,0.30
2008,02,04,11,04,0.00
2008,02,04,11,05,1.00
2008,02,04,11,06,1.70
2008,02,04,11,07,0.40
2008,02,04,11,08,0.10
2008,02,04,11,09,0.30
2008,02,04,11,10,0.00
2008,02,04,11,11,0.00
2008,02,04,11,12,0.50
2008,02,04,11,13,0.30
2008,02,04,11,14,0.70
2008,02,04,11,15,3.10
2008,02,04,11,16,2.30
2008,02,04,11,17,3.80
2008,02,04,11,18,2.90
2008,02,04,11,19,1.20
2008,02,04,11,20,3.10
2008,02,04,11,21,4.20
2008,02,04,11,22,1.90
2008,02,04,11,23,0.50
2008,02,04,11,24,0.20
2008,02,04,11,25,0.20
2008,02,04,11,26,3.20
2008,02,04,11,27,4.00
2008,02,04,11,28,2.50
2008,02,04,11,29,3.40
2008,02,04,11,30,3.00
2008,02,04,11,31,1.00
2008,02,04,11,32,0.40
2008,02,04,11,33,1.00
2008,02,04,11,34,3.00
2008,02,04,11,35,2.00
2008,02,04,11,36,4.20
2008,02,04,11,37,2.30
2008,02,04,11,38,0.90
2008,02,04,11,39,4.70
2008,02,04,11,40,2.50
2008,02,04,11,41,3.40
2008,02,04,11,42,1.50
2008,02,04,11,43,2.90
2008,02,04,11,44,1.00
2008,02,04,11,45,1.80
2008,02,04,11,46,1.70
2008,02,04,11,47,1.10
2008,02,04,11,48,0.20
2008,02,04,11,49,0.40
2008,02,04,11,50,2.40
2008,02,04,11,51,1.20
2008,02,04,11,52,2.60
2008,02,04,11,53,2.20
2008,02,04,11,54,1.30
2008,02,04,11,55,0.90
2008,02,04,11,56,1.30
2008,02,04,11,57,1.50
2008,02,04,11,58,2.70
2008,02,04,11,59,4.10
2008,02,04,12,00,2.50
2008,02,04,12,01,1.50
2008,02,04,12,02,3.50
2008,02,04,12,03,1.90
2008,02,04,12,04,0.50
2008,02,04,12,05,0.20
2008,02,04,12,06,1.50
2008,02,04,12,07,0.80
2008,02,04,12,08,0.40
2008,02,04,12,09,0.10
2008,02,04,12,10,0.30
2008,02,04,12,11,1.50
2008,02,04,12,12,2.00
2008,02,04,12,13,1.00
2008,02,04,12,14,2.40
2008,02,04,12,15,4.90
2008,02,04,12,16,1.80
2008,02,04,12,17,1.60
2008,02,04,12,18,1.10
2008,02,04,12,19,1.20
2008,02,04,12,20,3.40
2008,02,04,12,21,1.80
2008,02,04,12,22,1.10
2008,02,04,12,23,0.50
2008,02,04,12,24,0.80
2008,02,04,12,25,0.50
2008,02,04,12,26,0.60
2008,02,04,12,27,2.20
2008,02,04,12,28,0.70
2008,02,04,12,29,4.30
2008,02,04,12,30,2.30
2008,02,04,12,31,1.20
2008,02,04,12,32,1.70
2008,02,04,12,33,1.30
2008,02,04,12,34,0.40
2008,02,04,12,35,1.10
2008,02,04,12,36,1.40
2008,02,04,12,37,2.20
2008,02,04,12,38,3.50
2008,02,04,12,39,0.70
2008,02,04,12,40,1.70
2008,02,04,12,41,2.10
2008,02,04,12,42,4.20
2008,02,04,12,43,4.60
2008,02,04,12,44,0.60
2008,02,04,12,45,2.20
2008,02,04,12,46,1.40
2008,02,04,12,47,0.30
2008,02,04,12,48,1.90
2008,02,04,12,49,2.50
2008,02,04,12,50,3.50
2008,02,04,12,51,1.30
2008,02,04,12,52,0.00
2008,02,04,12,53,1.50
2008,02,04,12,54,0.10
2008,02,04,12,55,2.10
2008,02,04,12,56,4.40
2008,02,04,12,57,0.70
2008,02,04,12,58,0.40
2008,02,04,12,59,2.20
2008,02,04,13,00,0.80
2008,02,04,13,01,2.80
2008,02,04,13,02,3.40
2008,02,04,13,03,1.90
2008,02,04,13,04,0.60
2008,02,04,13,05,0.00
2008,02,04,13,06,1.00
2008,02,04,13,07,1.40
2008,02,04,13,08,0.60
2008,02,04,13,09,1.50
2008,02,04,13,10,2.10
2008,02,04,13,11,3.10
2008,02,04,13,12,3.50
2008,02,04,13,13,1.00
2008,02,04,13,14,2.00
2008,02,04,13,15,0.40
2008,02,04,13,16,1.70
2008,02,04,13,17,0.50
2008,02,04,13,18,2.40
2008,02,04,13,19,1.90
2008,02,04,13,20,1.80
2008,02,04,13,21,1.60
2008,02,04,13,22,4.00
2008,02,04,13,23,3.00
2008,02,04,13,24,4.80
2008,02,04,13,25,2.90
2008,02,04,13,26,4.00
2008,02,04,13,27,3.90
2008,02,04,13,28,2.20
2008,02,04,13,29,3.30
2008,02,04,13,30,1.50
2008,02,04,13,31,2.00
2008,02,04,13,32,3.90
2008,02,04,13,33,2.00
2008,02,04,13,34,0.50
2008,02,04,13,35,1.80
2008,02,04,13,36,4.70
2008,02,04,13,37,2.30
2008,02,04,13,38,2.50
2008,02,04,13,39,1.20
2008,02,04,13,40,2.90
2008,02,04,13,41,2.70
2008,02,04,13,42,2.50
2008,02,04,13,43,4.10
2008,02,04,13,44,2.10
2008,02,04,13,45,3.10
2008,02,04,13,46,1.20
2008,02,04,13,47,3.20
2008,02,04,13,48,1.80
2008,02,04,13,49,3.20
2008,02,04,13,50,3.20
2008,02,04,13,51,3.60
2008,02,04,13,52,3.20
2008,02,04,13,53,0.40
2008,02,04,13,54,1.40
2008,02,04,13,55,4.00
2008,02,04,13,56,1.80
2008,02,04,13,57,3.40
2008,02,04,13,58,3.50
2008,02,04,13,59,3.50
2008,02,04,14,00,3.60
2008,02,04,14,01,4.60
2008,02,04,14,02,2.00
2008,02,04,14,03,1.10
2008,02,04,14,04,1.20
2008,02,04,14,05,0.40
2008,02,04,14,06,0.10
2008,02,04,14,07,0.70
2008,02,04,14,08,0.30
2008,02,04,14,09,2.30
2008,02,04,14,10,1.40
2008,02,04,14,11,1.00
2008,02,04,14,12,1.60
2008,02,04,14,13,0.00
2008,02,04,14,14,1.70
2008,02,04,14,15,1.00
2008,02,04,14,16,0.60
2008,02,04,14,17,2.90
2008,02,04,14,18,5.80
2008,02,04,14,19,1.30
2008,02,04,14,20,0.70
2008,02,04,14,21,2.90
2008,02,04,14,22,2.00
2008,02,04,14,23,3.60
2008,02,04,14,24,4.70
2008,02,04,14,25,4.50
2008,02,04,14,26,1.50
2008,02,04,14,27,0.20
2008,02,04,14,28,0.80
2008,02,04,14,29,0.60
2008,02,04,14,30,1.30
2008,02,04,14,31,0.10
2008,02,04,14,32,0.40
2008,02,04,14,33,2.30
2008,02,04,14,34,1.60
2008,02,04,14,35,1.30
2008,02,04,14,36,1.60
2008,02,04,14,37,3.50
2008,02,04,14,38,1.00
2008,02,04,14,39,1.70
2008,02,04,14,40,6.10
2008,02,04,14,41,4.00
2008,02,04,14,42,2.70
2008,02,04,14,43,2.30
2008,02,04,14,44,1.60
2008,02,04,14,45,2.00
2008,02,04,14,46,2.90
2008,02,04,14,47,3.80
2008,02,04,14,48,0.60
2008,02,04,14,49,1.30
2008,02,04,14,50,0.60
2008,02,04,14,51,1.70
2008,02,04,14,52,2.00
2008,02,04,14,53,4.00
2008,02,04,14,54,0.40
2008,02,04,14,55,0.80
2008,02,04,14,56,3.60
2008,02,04,14,57,1.60
2008,02,04,14,58,2.40
2008,02,04,14,59,4.40
2008,02,04,15,00,1.80
2008,02,04,15,01,2.30
2008,02,04,15,02,1.70
2008,02,04,15,03,4.10
2008,02,04,15,04,1.30
2008,02,04,15,05,7.20
2008,02,04,15,06,6.20
2008,02,04,15,07,4.40
2008,02,04,15,08,3.00
2008,02,04,15,09,3.70
2008,02,04,15,10,6.40
2008,02,04,15,11,2.60
2008,02,04,15,12,4.40
2008,02,04,15,13,4.20
2008,02,04,15,14,4.90
2008,02,04,15,15,3.60
2008,02,04,15,16,3.60
2008,02,04,15,17,0.80
2008,02,04,15,18,2.50
2008,02,04,15,19,4.60
2008,02,04,15,20,1.90
2008,02,04,15,21,0.90
2008,02,04,15,22,2.90
2008,02,04,15,23,3.30
2008,02,04,15,24,2.90
2008,02,04,15,25,2.60
2008,02,04,15,26,4.00
2008,02,04,15,27,4.20
2008,02,04,15,28,4.60
2008,02,04,15,29,5.00
2008,02,04,15,30,3.60
2008,02,04,15,31,2.70
2008,02,04,15,32,6.00
2008,02,04,15,33,2.30
2008,02,04,15,34,6.90
2008,02,04,15,35,1.60
2008,02,04,15,36,3.00
2008,02,04,15,37,1.40
2008,02,04,15,38,1.90
2008,02,04,15,39,1.40
2008,02,04,15,40,4.70
2008,02,04,15,41,2.50
2008,02,04,15,42,2.40
2008,02,04,15,43,1.40
2008,02,04,15,44,1.10
2008,02,04,15,45,2.70
2008,02,04,15,46,1.90
2008,02,04,15,47,0.10
2008,02,04,15,48,1.60
2008,02,04,15,49,0.10
2008,02,04,15,50,0.00
2008,02,04,15,51,0.10
2008,02,04,15,52,0.40
2008,02,04,15,53,1.10
2008,02,04,15,54,0.90
2008,02,04,15,55,5.60
2008,02,04,15,56,3.50
2008,02,04,15,57,3.20
2008,02,04,15,58,0.90
2008,02,04,15,59,2.10
2008,02,04,16,00,0.40
2008,02,04,16,01,4.70
2008,02,04,16,02,2.90
2008,02,04,16,03,1.90
2008,02,04,16,04,3.80
2008,02,04,16,05,2.80
2008,02,04,16,06,4.30
2008,02,04,16,07,2.10
2008,02,04,16,08,2.90
2008,02,04,16,09,0.90
2008,02,04,16,10,1.10
2008,02,04,16,11,1.20
2008,02,04,16,12,2.90
2008,02,04,16,13,2.60
2008,02,04,16,14,0.60
2008,02,04,16,15,0.40
2008,02,04,16,16,5.10
2008,02,04,16,17,4.00
2008,02,04,16,18,2.10
2008,02,04,16,19,0.70
2008,02,04,16,20,0.40
2008,02,04,16,21,2.10
2008,02,04,16,22,0.80
2008,02,04,16,23,1.30
2008,02,04,16,24,3.60
2008,02,04,16,25,3.70
2008,02,04,16,26,3.30
2008,02,04,16,27,2.30
2008,02,04,16,28,1.60
2008,02,04,16,29,1.00
2008,02,04,16,30,1.50
2008,02,04,16,31,2.10
2008,02,04,16,32,2.70
2008,02,04,16,33,2.40
2008,02,04,16,34,1.80
2008,02,04,16,35,0.20
2008,02,04,16,36,0.10
2008,02,04,16,37,2.40
2008,02,04,16,38,2.90
2008,02,04,16,39,1.90
2008,02,04,16,40,3.10
2008,02,04,16,41,1.40
2008,02,04,16,42,1.80
2008,02,04,16,43,2.90
2008,02,04,16,44,5.90
2008,02,04,16,45,1.90
2008,02,04,16,46,1.40
2008,02,04,16,47,2.90
2008,02,04,16,48,6.00
2008,02,04,16,49,0.50
2008,02,04,16,50,0.00
2008,02,04,16,51,3.50
2008,02,04,16,52,1.70
2008,02,04,16,53,1.10
2008,02,04,16,54,0.80
2008,02,04,16,55,2.90
2008,02,04,16,56,1.90
2008,02,04,16,57,1.10
2008,02,04,16,58,2.10
2008,02,04,16,59,4.50
2008,02,04,17,00,1.30
2008,02,04,17,01,0.20
2008,02,04,17,02,2.70
2008,02,04,17,03,1.10
2008,02,04,17,04,0.20
2008,02,04,17,05,0.20
2008,02,04,17,06,0.00
2008,02,04,17,07,1.80
2008,02,04,17,08,0.80
2008,02,04,17,09,1.80
2008,02,04,17,10,2.00
2008,02,04,17,11,1.50
2008,02,04,17,12,3.70
2008,02,04,17,13,4.70
2008,02,04,17,14,2.30
2008,02,04,17,15,5.00
2008,02,04,17,16,2.00
2008,02,04,17,17,1.30
2008,02,04,17,18,3.40
2008,02,04,17,19,4.20
2008,02,04,17,20,3.50
2008,02,04,17,21,3.50
2008,02,04,17,22,3.80
2008,02,04,17,23,0.70
2008,02,04,17,24,0.10
2008,02,04,17,25,2.10
2008,02,04,17,26,0.10
2008,02,04,17,27,0.00
2008,02,04,17,28,0.20
2008,02,04,17,29,0.60
2008,02,04,17,30,0.20
2008,02,04,17,31,2.80
2008,02,04,17,32,1.20
2008,02,04,17,33,0.80
2008,02,04,17,34,2.20
2008,02,04,17,35,0.60
2008,02,04,17,36,2.60
2008,02,04,17,37,1.10
2008,02,04,17,38,4.10
2008,02,04,17,39,2.30
2008,02,04,17,40,1.20
2008,02,04,17,41,1.50
2008,02,04,17,42,1.00
2008,02,04,17,43,1.10
2008,02,04,17,44,2.40
2008,02,04,17,45,0.50
2008,02,04,17,46,0.50
2008,02,04,17,47,3.50
2008,02,04,17,48,2.80
2008,02,04,17,49,0.40
2008,02,04,17,50,0.30
2008,02,04,17,51,0.80
2008,02,04,17,52,1.60
2008,02,04,17,53,1.00
2008,02,04,17,54,2.90
2008,02,04,17,55,1.90
2008,02,04,17,56,2.30
2008,02,04,17,57,0.00
2008,02,04,17,58,1.30
2008,02,04,17,59,0.40
2008,02,04,18,00,1.00
2008,02,04,18,01,2.60
2008,02,04,18,02,1.40
2008,02,04,18,03,0.30
2008,02,04,18,04,1.40
2008,02,04,18,05,1.30
2008,02,04,18,06,1.70